Location: Bratislava
(0.0000°N, 17.1167°E)
Time: 05:48:20
(UTC+01:00)

GEOS 3 Rocket - Pass Details

Date: 24 January 2021
Orbit: 772 x 847 km, 115.0° (Epoch: 04 March)

Event Time Altitude Azimuth Distance (km) Brightness Sun altitude
Exits shadow 19:16:54 23° 38° (NE) 1,642 4.7 -17.3°
Maximum altitude 19:20:09 72° 118° (ESE) 840 3.5 -18.0°
Drops below altitude 10° 19:25:13 10° 202° (SSW) 2,348 6.6 -19.2°
Sets 19:27:29 0° 204° (SSW) 3,270 7.4 -19.7°
